Wind_Speed
16 16 14 14 12 10 10 10 9 9 11 11 10 9 10 10 11 11 11 12 12 8 7 6 4 5 7 5 7 7 5 4 6 5 3 4 5 2 1 2 3 4 5 4 5 4 4 4 3 3 4 4 5 6 6 7 7 7 7 8 8 8 8 8 9 8 8 8 9 9 10 10 10 10 10 10 11 11 11 11 11 11 11 10 10
18 16 14 13 12 10 10 11 11 12 12 13 14 13 12 14 14 13 12 12 10 8 9 9 5 5 8 5 4 7 6 3 5 5 4 6 8 4 1 1 3 4 5 5 5 5 5 5 5 5 4 4 4 5 5 5 6 6 7 8 8 8 8 8 8 8 8 8 9 9 9 9 9 10 10 10 10 10 11 11 11 11 11 11 11
19 17 15 15 14 11 11 13 15 15 13 13 16 16 15 14 12 12 13 13 12 13 14 12 9 7 8 6 5 7 7 4 3 3 3 7 8 4 2 1 3 4 6 6 6 6 6 7 7 6 5 4 4 5 5 5 6 6 6 7 7 7 7 8 8 8 8 8 8 8 8 8 9 9 9 10 10 10 11 11 11 12 12 12 12
19 18 17 17 15 14 15 16 16 16 15 15 15 15 14 11 9 9 11 13 13 13 13 11 9 9 8 5 5 7 8 7 4 4 4 5 6 4 2 2 4 5 6 6 7 7 7 8 8 8 6 5 5 5 5 5 5 5 6 6 6 6 7 7 7 7 7 8 8 8 8 8 9 9 9 10 10 10 11 11 11 11 11 11 11
19 17 16 16 15 16 15 14 14 14 13 12 11 12 11 9 8 7 7 8 8 8 9 8 7 8 6 4 5 7 8 8 6 5 5 4 5 4 3 2 4 5 5 6 7 7 8 8 9 9 8 7 7 6 6 6 6 6 6 6 6 6 6 6 6 6 7 7 8 8 9 9 9 10 10 10 10 11 11 11 11 11 11 11 11
20 18 16 16 16 15 11 10 10 10 10 9 10 10 9 8 8 8 8 7 6 6 7 7 7 6 5 7 6 7 7 7 5 5 6 5 5 5 4 3 3 3 5 5 5 6 6 7 9 10 10 10 10 9 9 8 8 8 9 9 9 8 7 6 6 6 7 7 8 8 9 9 10 10 10 10 11 11 11 11 11 11 11 11 11
19 19 19 18 17 15 12 11 10 10 10 9 10 10 9 9 8 8 7 6 5 5 6 6 6 5 5 6 6 6 6 6 6 6 7 6 6 5 4 4 3 3 4 5 4 4 5 6 7 10 12 13 14 14 14 13 13 14 14 13 12 11 9 8 7 7 7 7 7 8 9 9 10 10 10 11 11 11 11 11 11 11 11 11 11
17 18 18 16 16 15 14 13 12 11 10 9 9 9 8 9 9 8 6 6 5 6 7 7 4 10 7 5 5 6 6 6 7 7 7 7 6 5 5 5 4 4 4 5 4 3 4 5 6 9 12 14 15 16 16 16 16 16 16 15 15 14 12 11 10 9 8 8 8 9 9 10 10 11 11 11 11 11 11 11 11 11 11 11 12
17 17 17 15 14 14 12 12 12 11 10 10 10 9 9 9 9 10 10 9 8 7 7 6 4 15 10 6 6 6 7 8 8 9 8 8 7 6 5 5 4 4 4 4 4 4 4 4 6 8 10 11 13 13 13 13 13 14 14 14 15 15 14 14 13 11 10 10 10 10 10 10 11 11 11 11 11 11 11 12 12 12 12 12 13
17 16 16 15 13 12 10 10 10 10 10 11 10 9 9 9 9 10 10 9 8 7 6 6 5 9 7 6 7 8 8 9 10 9 9 9 8 7 6 5 4 5 4 4 5 5 5 5 6 7 8 9 9 9 9 9 8 9 10 10 12 13 14 14 13 13 12 12 11 11 11 11 12 12 12 12 12 12 12 13 13 13 14 14 14
16 15 15 14 12 11 11 10 9 10 10 10 10 9 9 10 10 9 8 7 6 6 5 6 6 4 5 6 7 8 8 11 12 9 9 10 9 8 7 6 5 5 4 4 6 6 7 6 6 7 7 7 6 6 6 6 6 6 6 6 7 9 11 12 12 13 13 13 12 11 12 12 12 13 13 13 14 14 14 14 14 15 15 15 15
15 15 14 13 12 11 12 10 10 9 9 9 9 10 10 10 10 9 8 8 6 6 4 5 5 5 6 7 8 8 7 10 11 9 9 9 10 8 7 7 6 5 6 7 7 7 7 7 7 6 6 6 6 5 5 5 5 5 5 5 5 5 7 9 10 11 12 13 12 12 12 12 13 14 14 14 15 15 14 14 14 14 14 14 14
15 14 12 13 12 10 11 10 9 9 9 9 10 10 10 10 10 9 10 9 7 7 6 6 6 7 8 7 8 8 7 8 9 10 9 8 9 7 6 8 7 6 8 9 8 8 8 8 7 7 6 6 6 6 5 5 4 4 4 5 5 4 4 6 8 9 11 12 12 12 12 12 13 13 14 14 14 14 13 13 13 13 13 13 13
14 13 12 12 12 11 10 9 8 8 9 10 10 10 10 11 10 10 10 9 8 8 8 7 7 9 10 9 8 7 8 8 7 8 8 7 7 6 6 8 7 7 9 9 8 8 9 9 8 7 6 7 7 6 4 4 4 4 4 4 4 5 5 5 6 6 8 9 10 11 11 11 12 13 13 13 12 11 11 11 11 11 12 12 12
13 13 12 11 11 11 10 10 10 9 10 11 12 11 10 10 10 9 9 9 8 9 8 8 8 9 10 10 10 9 9 8 7 8 9 9 7 5 6 7 7 8 9 9 8 8 9 9 8 8 7 7 6 5 4 4 4 4 5 4 4 4 4 6 6 6 6 7 7 8 9 10 11 11 11 10 10 9 9 9 8 8 9 9 10
13 11 10 12 12 11 10 10 11 11 10 10 10 10 10 10 10 10 10 9 8 8 8 8 7 9 10 10 10 10 9 9 10 9 9 9 7 5 5 6 7 7 8 9 9 8 7 7 7 7 6 6 6 6 5 5 5 5 5 5 4 4 4 6 6 6 6 5 6 7 7 8 8 8 8 8 8 7 7 7 7 7 7 8 9
11 11 10 13 13 11 11 10 10 10 9 9 8 8 9 9 10 10 11 11 9 8 9 8 7 8 9 9 8 7 8 11 11 10 9 9 8 6 6 7 8 9 10 10 9 7 6 7 7 6 6 6 6 6 5 6 6 5 5 5 5 5 5 6 6 7 6 6 6 7 8 6 6 7 7 7 8 8 8 9 9 9 9 9 8
11 12 11 12 11 10 10 10 10 9 10 10 9 9 9 9 10 10 11 11 10 8 9 9 8 8 7 6 6 6 10 13 11 11 11 9 8 8 7 8 9 11 11 11 10 8 7 7 7 7 7 7 6 6 6 7 7 7 6 7 7 7 8 9 9 8 8 8 8 8 9 7 8 10 11 11 11 11 11 11 11 10 9 8 6
12 12 11 10 9 10 11 10 9 10 10 10 10 10 9 9 10 10 11 11 9 8 9 9 8 8 7 6 5 5 10 12 11 13 14 11 9 9 9 10 11 10 10 10 10 9 9 9 9 9 9 9 8 7 8 10 10 10 10 10 10 10 11 13 13 13 12 12 11 11 11 10 11 13 13 12 11 10 9 9 8 7 6 6 5
12 11 10 9 9 10 11 9 8 9 10 10 10 10 9 9 10 10 11 10 9 8 8 8 9 9 9 6 6 8 9 8 7 11 14 15 13 11 11 12 12 11 9 8 9 9 11 13 12 11 10 9 9 10 10 12 13 13 13 13 14 14 13 14 14 14 13 13 12 12 11 10 11 11 10 10 8 8 7 7 7 6 5 5 5
12 12 11 10 9 9 10 9 7 8 10 9 9 9 8 9 9 9 10 9 9 9 9 8 9 10 10 8 7 9 9 8 8 8 11 16 15 13 13 12 12 12 9 8 10 11 13 15 13 10 8 7 9 11 12 12 14 15 15 14 14 14 13 13 12 11 10 10 10 10 10 10 10 9 9 8 7 6 6 6 6 5 5 5 5
11 12 12 11 10 10 10 10 9 8 7 8 8 8 7 7 8 8 8 9 9 9 10 9 9 10 10 9 8 8 8 10 12 10 10 12 13 14 13 11 12 13 10 8 10 13 14 16 14 8 4 5 9 12 12 13 14 14 14 13 12 12 12 11 10 9 9 8 8 8 8 8 8 7 7 6 6 5 5 5 6 6 6 7 7
11 11 11 10 10 11 10 10 11 8 5 5 6 7 6 6 6 6 6 7 8 9 9 8 9 10 10 10 8 6 7 10 11 11 11 12 14 15 12 10 13 13 11 10 11 15 16 16 14 7 2 6 12 12 12 12 13 13 12 11 11 10 10 9 8 8 7 7 7 7 6 6 6 6 5 5 6 6 7 7 8 8 9 9 9
11 10 10 9 10 11 9 8 11 10 5 3 3 3 5 7 6 6 6 6 6 8 9 8 10 10 9 9 8 8 8 8 9 10 11 13 15 16 13 12 13 12 11 13 16 17 15 14 14 9 5 11 14 12 11 12 12 12 11 10 10 10 9 9 8 8 7 6 6 6 6 6 6 6 6 7 7 8 9 9 9 10 10 10 10
11 11 11 10 10 11 9 8 10 12 9 7 6 4 3 6 7 7 6 5 6 7 7 7 9 10 8 8 7 9 9 7 7 9 11 13 14 15 15 13 14 13 12 16 19 18 13 11 9 8 11 14 13 11 12 12 13 12 11 11 11 11 11 10 10 9 9 8 8 7 7 7 7 8 8 9 9 9 10 10 10 10 9 9 8
12 11 11 10 10 10 10 9 9 12 12 11 11 8 5 4 5 6 6 5 6 6 6 6 8 8 7 7 6 7 9 8 7 9 12 14 16 17 17 16 14 13 14 17 20 18 14 10 8 9 13 13 11 11 11 12 14 13 12 13 13 12 12 11 11 10 9 9 8 8 8 8 8 8 9 9 9 9 9 9 9 8 7 6 6
11 11 11 11 12 12 11 11 9 10 10 9 8 9 9 5 4 6 6 5 6 7 6 7 8 7 7 8 6 7 10 9 7 9 11 14 17 16 16 19 19 15 15 18 18 17 16 14 13 11 10 12 11 11 12 13 15 14 13 13 13 12 11 10 10 9 9 8 8 8 8 8 8 8 8 8 8 8 8 8 7 6 5 4 3
10 11 13 12 11 11 10 10 8 7 7 7 7 11 10 4 5 8 6 6 7 7 7 8 9 8 8 8 9 9 10 9 9 10 10 13 16 13 12 20 24 21 18 17 18 19 17 15 13 8 8 11 12 12 14 15 15 15 13 11 11 11 10 9 9 8 8 8 7 7 7 8 8 8 8 8 8 8 7 7 6 5 4 3 2
11 13 14 11 10 10 9 8 9 9 9 9 9 13 9 4 6 9 7 7 8 6 6 7 9 9 9 10 11 10 9 8 10 11 10 12 14 12 12 17 21 23 22 19 19 20 17 14 12 9 10 12 13 14 15 15 15 14 12 10 9 9 9 8 8 7 7 7 7 7 7 7 7 8 8 7 7 7 6 6 5 4 3 2 2
14 14 14 12 11 9 9 9 11 11 12 10 10 12 9 6 8 7 5 7 8 7 6 6 8 10 10 10 10 9 8 8 10 10 10 11 12 12 13 14 16 20 22 21 21 19 16 14 13 12 12 14 15 16 17 16 15 13 10 9 7 7 7 7 6 6 6 6 6 5 5 6 6 7 7 6 6 6 5 5 4 3 3 2 1
14 14 13 12 12 10 7 8 11 13 13 11 11 11 8 8 9 6 7 9 6 6 6 6 8 9 10 10 9 8 8 9 10 10 10 10 11 13 12 12 16 19 20 20 20 18 16 16 15 12 11 15 16 16 17 16 14 12 10 8 7 7 6 6 6 5 5 5 4 5 4 5 5 6 6 6 5 5 5 5 4 3 3 2 2
13 13 12 11 11 9 7 8 11 13 12 11 10 9 9 9 8 6 9 8 5 5 6 7 8 9 10 10 10 10 10 9 10 11 11 10 10 9 8 10 15 18 19 18 18 18 16 16 16 12 11 14 15 16 17 16 13 11 10 8 7 7 7 6 6 4 4 4 3 4 4 4 5 5 5 5 5 5 5 4 4 3 3 3 3
13 13 12 11 9 7 7 9 10 11 11 11 11 9 9 9 7 7 9 8 6 6 6 6 7 7 9 10 10 11 11 11 11 12 11 10 8 7 6 7 11 16 18 18 18 18 17 15 15 12 10 13 15 14 14 15 13 11 11 10 9 8 8 7 7 5 4 3 3 2 3 3 4 5 6 5 5 5 4 4 4 3 3 4 4
14 13 12 11 9 8 9 9 9 10 10 11 11 9 9 9 9 9 10 8 7 7 7 7 6 7 9 9 10 11 11 12 13 12 12 10 9 9 7 6 7 12 16 17 18 19 18 17 15 13 12 14 17 15 13 13 13 11 11 12 12 11 10 9 7 6 4 3 2 2 1 2 3 4 5 5 4 4 4 4 4 4 4 4 4
14 13 12 11 10 9 10 9 9 9 10 11 11 9 10 10 10 10 9 8 9 9 9 9 8 8 8 8 10 11 12 14 12 10 12 11 10 9 7 6 6 9 15 18 17 19 19 17 16 16 15 16 17 16 14 13 12 12 11 11 12 12 12 11 8 6 5 4 2 1 1 1 1 3 3 4 4 4 4 4 4 4 4 5 5
15 14 12 11 10 9 10 9 9 9 9 10 10 9 10 11 10 10 9 9 10 10 9 9 9 8 6 7 11 12 12 15 11 9 11 10 7 7 8 8 6 8 14 16 14 16 17 16 16 17 16 16 16 16 16 14 13 14 13 11 10 10 12 11 9 8 7 5 4 2 2 3 2 2 3 3 4 4 4 5 5 5 6 6 6
15 15 13 11 9 9 9 9 9 9 9 10 9 9 10 11 9 9 10 10 10 9 8 9 8 7 5 6 9 11 12 13 10 9 11 8 5 7 8 7 7 8 10 12 12 13 13 14 16 17 16 16 17 17 18 17 14 14 16 13 8 10 17 16 12 12 9 6 6 5 5 5 5 5 4 4 5 5 5 6 6 6 7 7 7
14 13 13 12 9 9 10 9 9 9 9 9 9 9 11 11 10 9 10 10 9 9 9 8 7 7 8 8 8 9 11 12 9 8 9 6 4 8 7 6 9 11 10 10 11 11 10 11 14 15 17 16 16 18 19 18 15 14 18 17 10 12 23 24 18 15 12 9 9 9 8 8 8 8 7 7 7 7 7 7 7 7 7 7 8
13 12 13 13 11 9 10 10 9 10 9 9 9 9 10 11 10 10 11 10 9 9 9 7 6 7 7 8 7 7 9 11 10 10 10 8 6 8 9 7 8 10 9 10 10 10 10 12 13 14 16 16 15 18 18 18 17 15 16 20 17 17 23 25 22 21 19 17 15 13 12 11 11 11 10 10 9 9 9 9 8 8 8 8 10
13 12 12 13 12 11 11 10 10 10 10 9 10 9 9 10 10 11 11 10 9 10 9 6 7 8 5 5 5 4 5 8 9 10 11 12 11 11 12 11 9 7 9 12 12 10 10 13 14 13 15 16 16 17 18 18 20 19 17 19 22 22 23 23 24 25 24 22 20 17 15 13 13 13 13 12 11 10 10 9 7 8 9 10 11
13 12 10 13 14 11 11 11 11 11 11 11 11 11 10 10 9 9 10 9 8 9 7 6 7 7 5 4 4 4 4 5 6 8 8 10 11 11 11 13 12 9 10 13 14 12 10 12 15 14 15 17 18 18 20 22 22 23 21 19 22 25 25 24 24 26 26 24 20 18 17 14 12 13 12 11 11 10 10 9 7 7 9 11 12
13 12 10 12 13 12 11 12 12 12 12 12 12 12 12 11 10 9 9 7 8 8 7 5 6 6 5 6 6 6 7 7 7 8 8 8 9 10 10 11 12 12 12 13 14 14 12 12 14 14 16 19 20 20 21 22 22 23 23 22 22 25 26 25 25 25 26 23 18 16 16 13 10 10 10 12 12 11 11 11 10 10 11 13 14
13 12 11 12 13 12 12 13 14 14 12 12 13 12 11 12 12 11 9 7 7 7 6 5 5 4 6 9 8 7 9 10 10 9 10 10 10 12 13 13 12 13 13 13 14 15 15 15 16 16 17 18 20 21 21 22 22 23 24 24 24 25 26 25 25 24 25 24 20 17 16 13 11 12 13 15 16 14 15 16 16 15 15 15 16
12 12 11 11 12 12 11 13 15 16 13 12 14 14 12 12 13 12 10 7 5 5 5 5 5 4 5 6 6 6 7 9 10 10 9 10 10 11 13 15 15 15 16 16 16 17 18 19 20 20 21 21 21 21 21 23 24 25 26 26 27 28 28 28 28 26 26 25 23 20 18 16 15 15 15 18 18 18 19 20 20 19 18 18 19
15 14 12 11 11 10 10 12 13 15 15 13 14 15 13 12 11 11 9 7 5 5 5 6 6 6 6 6 5 5 5 7 9 11 11 11 10 10 11 13 15 16 17 18 19 19 21 22 23 23 23 24 25 25 23 24 26 26 27 28 30 30 29 30 31 29 27 25 23 23 22 20 18 17 16 17 19 20 21 21 21 21 20 19 19
16 16 15 15 15 12 11 12 11 11 11 11 12 14 15 13 12 10 9 8 6 5 6 7 7 6 7 8 8 7 7 9 9 10 12 15 15 14 12 12 12 13 14 16 18 19 21 23 25 26 25 26 28 28 28 28 29 29 30 30 31 30 29 29 30 30 29 27 25 24 24 22 20 18 17 17 18 18 17 17 19 20 20 20 19
17 17 16 16 17 14 12 11 10 8 7 7 8 11 12 11 10 9 9 8 7 6 6 6 6 7 8 9 10 9 9 12 12 12 14 16 18 18 16 14 12 12 14 15 16 17 19 21 24 27 27 28 28 28 28 29 30 30 31 31 29 28 29 29 30 31 31 31 29 26 23 21 18 16 17 16 13 13 14 15 17 19 19 20 20
15 17 17 16 16 16 13 11 10 9 6 4 5 6 7 8 8 8 8 8 9 8 8 8 8 8 9 10 11 11 12 14 15 16 17 18 18 18 17 16 14 15 17 17 18 19 19 19 21 23 25 28 28 28 28 29 29 27 27 30 30 31 33 33 31 31 30 30 30 26 22 21 18 13 14 14 12 13 14 16 17 19 20 21 21
13 15 15 14 14 15 15 12 11 9 7 5 4 4 6 7 8 8 8 8 9 9 9 9 9 9 9 11 13 15 16 17 18 18 19 19 18 18 17 18 18 18 20 20 21 22 22 22 23 22 23 25 27 29 29 29 29 27 26 28 32 34 36 35 33 32 29 27 27 25 22 22 18 14 13 12 12 14 16 17 19 20 21 21 21
13 14 14 13 12 12 13 12 10 9 8 7 7 8 11 11 11 11 10 10 10 10 10 10 10 11 12 14 16 18 19 19 19 18 18 19 19 18 19 21 20 20 22 23 24 25 25 25 26 25 24 25 26 29 30 30 30 30 28 29 32 35 35 32 30 28 23 22 24 23 20 19 16 14 14 12 13 14 16 18 18 19 20 20 19
13 13 13 12 10 10 11 12 11 11 11 11 12 13 15 14 13 12 12 12 12 12 12 12 11 12 13 13 15 17 18 17 15 12 13 15 17 18 20 21 22 23 25 25 26 27 28 28 27 27 27 27 25 26 28 30 32 32 31 31 32 33 33 29 26 23 21 22 22 19 18 15 12 13 15 14 14 13 11 13 15 16 16 16 16
Wind_Direction
197 198 201 196 195 197 208 206 200 199 176 174 200 189 162 186 211 193 185 182 180 199 197 205 224 198 212 206 181 167 136 185 231 255 278 285 284 298 343 45 65 70 81 78 75 75 75 83 85 92 93 89 88 87 89 90 89 86 83 80 81 84 88 90 92 92 93 90 88 86 86 86 86 85 85 85 83 80 79 78 77 77 78 78 78
190 191 195 192 190 193 203 197 192 200 190 182 193 192 182 197 208 192 180 175 175 195 194 194 190 191 217 211 181 184 176 202 228 230 256 268 268 276 296 61 67 74 85 84 80 74 72 77 81 86 90 95 97 98 100 100 97 91 87 87 87 88 88 89 92 94 95 93 93 91 90 88 85 85 86 86 84 82 81 80 78 77 78 77 76
188 191 193 191 189 190 196 197 196 195 190 191 195 195 195 200 200 182 170 172 181 192 193 190 175 184 223 215 192 187 177 167 142 159 219 245 246 247 228 109 74 81 89 88 84 77 75 76 79 85 91 102 109 115 114 110 105 98 98 99 97 95 92 91 91 91 93 93 94 93 91 88 86 87 86 87 86 84 83 81 79 77 77 77 77
186 191 194 193 190 194 200 203 203 197 191 196 198 194 196 197 190 182 179 181 186 193 193 188 182 200 220 208 196 191 187 188 161 153 182 215 229 224 209 135 89 93 98 94 87 82 84 85 83 83 85 93 102 113 117 115 112 109 108 105 100 97 93 92 91 90 90 89 89 88 86 84 83 85 85 86 86 85 83 80 80 80 79 79 80
188 192 192 192 194 200 205 204 205 202 199 199 193 189 189 181 172 168 168 170 175 181 170 162 187 218 231 215 202 204 206 204 193 170 157 180 217 211 205 157 107 95 100 101 95 91 89 86 78 73 74 81 90 101 111 116 116 113 106 99 96 93 92 93 93 92 89 87 86 85 85 84 83 83 84 86 86 85 84 81 79 80 80 80 80
188 186 183 189 196 199 198 195 199 195 193 193 183 182 177 162 161 152 144 143 149 160 145 158 197 205 216 222 212 207 209 204 193 174 158 167 191 193 196 177 142 115 107 105 105 103 95 84 74 73 79 84 91 98 103 106 105 102 97 94 93 93 95 96 97 96 94 94 92 91 89 87 85 84 84 84 85 85 84 83 81 80 80 79 80
183 179 183 192 193 188 188 193 199 188 180 181 176 177 169 156 157 146 143 145 154 170 152 181 206 142 154 218 211 196 196 194 188 180 174 175 188 193 191 196 176 148 131 118 117 119 110 95 83 85 91 92 95 95 95 96 96 96 93 91 91 91 92 94 96 98 98 100 98 95 92 90 89 87 87 86 86 87 86 85 84 83 81 80 80
185 183 191 200 195 184 186 192 193 185 177 180 177 173 167 157 152 150 159 163 176 197 178 206 210 115 129 215 193 177 179 178 179 181 190 187 190 192 185 198 180 156 154 137 131 137 132 117 107 105 103 101 100 97 94 93 92 92 90 89 88 85 84 86 89 92 94 97 95 94 94 95 96 93 93 92 91 90 89 87 85 84 82 80 79
191 192 196 200 200 191 189 186 181 184 180 181 183 179 182 176 168 174 181 179 191 207 193 216 149 110 129 201 178 173 171 169 173 175 191 188 179 180 186 199 173 159 173 156 144 144 153 148 130 126 121 114 109 101 94 91 89 88 87 88 85 81 79 80 83 84 86 90 91 92 93 95 95 94 94 93 93 91 90 88 85 83 79 77 76
191 195 199 199 201 197 195 187 181 190 186 184 188 187 194 194 191 191 190 190 197 206 194 202 174 125 150 192 176 180 170 166 175 172 179 184 185 185 185 191 170 164 182 174 159 148 158 161 143 141 140 129 118 107 99 97 94 91 88 86 85 82 77 75 78 80 83 86 89 91 93 94 93 93 94 92 92 90 89 88 84 82 79 76 76
190 197 201 198 197 193 197 195 192 199 195 194 196 195 200 199 202 200 190 195 191 191 197 198 202 170 157 156 158 175 164 157 167 175 178 178 187 188 171 172 174 173 176 168 161 155 155 158 147 148 154 145 128 115 110 112 111 110 106 95 88 85 78 75 77 80 83 85 88 91 92 95 96 96 96 94 92 90 88 87 84 83 80 78 77
191 201 200 195 193 191 196 195 194 202 202 203 201 202 207 202 207 204 186 192 185 174 191 201 192 160 143 139 143 156 146 141 150 165 177 175 178 181 165 167 176 171 169 161 153 151 152 155 149 149 161 162 147 130 120 116 114 118 122 114 109 102 86 80 80 83 84 85 87 91 91 93 97 99 98 95 93 90 87 85 83 82 79 78 76
196 202 198 195 194 192 199 198 196 200 202 204 201 202 207 203 210 210 188 183 180 173 182 192 173 154 156 142 136 142 129 130 141 148 163 174 173 170 158 166 171 163 164 155 145 149 150 149 148 151 160 164 160 150 133 119 114 119 125 126 134 144 126 99 92 92 90 87 87 91 92 94 96 98 98 95 93 90 86 82 80 79 76 74 72
197 200 197 196 193 194 204 207 201 197 200 202 198 199 204 204 207 206 188 175 177 180 184 191 169 155 157 144 134 127 113 124 138 136 144 158 162 155 151 160 160 160 163 151 147 156 146 140 148 152 157 162 164 159 144 135 131 129 130 131 140 154 156 133 115 106 99 92 90 93 96 98 98 99 97 95 92 89 86 82 79 76 72 70 69
192 197 199 197 195 201 209 211 204 195 198 201 195 191 194 196 192 184 180 177 180 180 180 190 179 158 151 144 138 125 112 119 122 119 130 139 146 150 150 154 150 155 164 156 155 155 140 143 152 146 149 160 162 161 160 157 150 137 131 130 132 143 160 152 138 125 114 102 102 105 103 104 103 98 94 91 90 86 82 79 78 75 72 71 71
191 194 198 196 197 206 209 207 202 193 197 206 196 185 181 183 180 170 172 176 176 179 177 181 181 169 159 151 142 130 127 135 127 120 128 134 135 131 130 139 144 149 155 155 155 150 142 150 151 140 140 141 143 156 162 159 152 141 136 133 124 128 148 154 149 140 124 112 120 120 110 109 105 100 101 98 90 84 78 75 76 77 74 72 74
196 197 197 197 196 202 204 200 200 198 204 209 197 184 175 177 181 172 170 174 174 176 171 170 183 184 171 156 147 144 149 148 132 118 125 132 125 116 119 126 134 137 135 140 143 139 142 152 149 145 142 136 140 146 143 149 155 149 142 132 122 125 137 144 146 143 132 123 127 122 112 109 100 102 116 109 95 89 86 85 84 84 86 88 90
201 198 197 199 192 196 204 200 197 202 207 201 188 182 176 177 185 178 174 175 177 177 168 172 188 187 176 159 154 167 162 152 139 126 123 125 119 114 116 123 132 130 120 126 135 132 138 144 139 140 140 137 142 138 132 141 146 140 133 125 121 123 125 128 130 129 124 121 125 124 120 117 104 102 111 113 109 108 104 101 100 97 100 106 107
202 195 194 196 190 193 204 203 197 199 204 197 183 181 183 185 186 180 178 174 174 177 167 171 186 179 170 160 144 154 156 150 146 139 131 124 122 117 116 124 134 131 119 125 134 135 138 135 128 128 127 125 129 133 132 132 131 128 123 118 118 120 120 120 120 119 117 115 117 121 123 122 116 112 115 120 123 123 118 114 110 106 104 104 94
202 195 192 196 196 191 192 196 193 191 194 190 182 183 191 192 187 182 178 175 178 179 163 162 176 173 166 159 134 134 146 147 144 146 140 132 128 123 121 123 126 126 123 125 130 134 139 135 126 118 117 120 125 127 126 124 123 121 117 116 119 121 123 122 122 124 124 122 123 126 126 124 120 117 118 121 122 119 115 111 108 107 101 94 84
202 199 193 190 192 185 180 185 187 184 183 184 184 187 191 190 191 189 180 178 185 186 171 164 173 172 162 149 132 133 146 152 149 153 146 138 138 138 134 130 125 119 119 126 127 125 126 122 114 109 118 130 132 131 131 127 124 120 118 119 122 123 125 125 126 128 130 131 132 131 128 124 121 120 119 118 117 114 110 106 103 99 91 84 75
204 197 185 175 177 179 175 173 174 173 172 176 183 189 191 188 189 190 186 182 184 189 184 175 174 171 160 151 147 152 156 152 153 159 152 144 144 143 141 145 138 123 118 125 123 120 113 105 111 127 144 142 142 141 139 133 128 124 124 125 126 126 125 125 127 130 133 134 132 129 126 125 124 123 122 120 116 111 106 100 95 90 85 83 79
196 188 176 168 169 170 166 164 160 152 163 178 173 174 179 181 179 175 182 184 182 187 187 180 177 171 165 166 166 165 155 146 154 164 158 149 144 141 143 146 139 128 127 130 123 119 110 108 131 167 200 144 148 146 141 138 132 127 127 127 127 125 123 124 126 128 132 132 130 130 129 128 129 128 125 121 116 112 108 103 99 97 93 92 90
186 181 173 167 166 161 152 154 149 140 156 167 133 158 172 163 162 159 166 169 167 178 182 176 176 175 176 178 170 159 154 150 156 162 158 154 151 148 147 141 132 126 128 131 123 117 120 137 161 186 164 143 148 147 143 141 134 129 128 126 123 122 121 121 120 120 121 122 122 123 126 126 126 127 125 122 118 114 111 108 105 103 100 97 95
172 174 174 171 167 159 149 155 154 146 152 152 147 179 174 153 157 151 155 163 156 164 174 169 171 179 183 181 176 167 158 148 148 156 155 154 153 147 143 141 136 132 133 130 122 121 134 155 167 172 155 147 148 148 147 142 135 132 131 127 122 119 116 112 110 110 110 113 116 118 121 122 122 123 122 121 119 115 112 110 107 103 100 96 91
170 175 176 164 153 150 149 157 162 161 164 166 171 173 145 143 169 151 147 164 157 150 161 166 166 174 178 178 188 179 164 161 170 173 163 155 154 150 145 141 139 140 139 130 124 127 137 141 146 156 154 151 150 147 148 144 135 133 133 130 124 118 114 110 106 104 104 108 114 118 120 122 122 121 121 119 117 117 115 112 109 105 101 96 89
173 169 159 153 153 154 162 166 166 172 172 172 174 153 132 143 169 148 143 150 145 143 152 159 159 163 171 171 168 162 160 167 182 181 170 162 163 164 155 144 142 145 137 130 132 136 138 142 154 166 157 150 154 152 148 143 137 136 136 133 127 122 116 110 106 101 101 103 108 116 121 123 124 124 125 125 125 125 124 122 120 119 114 109 101
172 158 155 166 163 155 167 171 165 169 156 144 137 123 122 144 135 124 126 122 122 130 138 144 151 154 158 153 148 158 165 161 162 163 164 167 169 170 157 146 148 148 142 142 144 142 145 151 160 180 180 162 156 153 149 145 141 140 139 135 131 127 121 115 111 104 102 104 107 114 120 125 129 131 133 134 136 136 135 135 133 131 130 125 115
170 161 165 170 154 154 178 172 161 158 135 127 128 123 129 148 118 119 130 125 121 117 112 126 142 146 146 146 149 162 165 153 156 161 159 161 162 160 154 150 153 153 151 152 148 146 155 160 161 174 179 167 157 153 152 148 145 144 142 140 136 133 131 125 120 115 111 109 110 116 124 131 135 139 141 143 144 146 145 144 144 143 143 143 133
172 167 168 161 153 175 191 167 161 153 133 133 133 124 132 136 125 136 133 114 118 117 106 114 130 136 139 141 146 158 159 151 161 169 164 162 162 163 162 161 163 160 157 153 149 153 160 162 172 180 170 163 160 156 155 153 152 151 147 147 148 147 145 140 134 128 120 114 115 119 128 138 145 147 150 154 154 155 157 154 154 157 157 160 168
174 169 166 166 175 191 185 160 156 145 140 147 136 126 142 142 137 140 112 101 107 110 112 122 130 139 143 140 143 153 154 152 159 167 170 170 166 164 165 168 169 165 162 158 155 160 166 166 178 189 175 168 167 163 163 163 165 164 158 160 167 164 162 158 152 142 129 121 118 124 136 148 157 161 162 166 168 167 168 167 166 168 173 187 207
171 165 165 172 180 183 167 152 149 149 155 154 137 139 152 137 133 139 121 117 115 103 111 124 133 149 148 143 150 156 152 151 155 155 153 150 145 146 152 160 168 170 168 166 162 162 170 175 180 190 184 171 170 172 173 175 183 185 175 177 186 181 182 180 169 160 144 134 125 125 137 155 168 175 178 176 178 178 174 174 175 179 193 213 230
166 161 166 169 162 157 152 145 149 159 162 153 146 150 145 132 142 147 125 121 128 124 124 128 143 157 147 145 153 154 157 157 149 142 135 132 135 142 151 156 170 177 171 167 165 162 170 181 185 191 182 164 170 185 191 189 195 201 187 186 202 199 195 196 182 172 163 151 147 134 131 154 173 181 184 182 182 183 183 187 194 204 221 236 252
165 163 170 162 145 143 146 145 152 156 155 157 153 147 144 145 148 131 116 129 149 143 131 125 126 129 133 147 153 153 161 154 144 143 136 138 151 156 175 189 180 180 172 167 169 166 171 180 184 186 175 165 177 195 210 205 200 206 196 190 204 208 203 205 195 183 187 179 166 160 142 161 181 186 187 187 187 191 199 208 217 231 246 258 269
161 164 170 155 142 149 150 150 153 147 152 156 148 149 157 148 136 128 134 156 151 130 126 125 119 123 138 158 154 151 152 138 135 149 143 147 161 155 169 195 188 182 176 173 175 173 175 178 180 186 182 177 189 204 216 218 208 207 203 193 203 220 216 203 198 200 201 197 198 200 208 225 211 205 202 200 201 207 217 227 242 256 268 274 275
159 167 165 145 145 155 152 152 148 144 153 150 143 159 160 140 136 144 153 154 135 119 125 129 128 137 152 156 148 149 144 132 140 165 156 157 171 155 162 180 183 186 182 185 192 187 185 182 179 192 197 185 191 208 216 222 217 206 208 205 201 225 229 210 211 228 220 211 227 244 269 283 286 267 246 231 227 231 240 251 265 273 276 279 279
162 166 154 142 152 158 149 149 148 147 154 147 146 159 151 140 145 146 138 133 126 127 138 138 138 140 121 116 139 154 150 141 152 173 167 166 158 147 167 185 181 175 172 184 198 191 189 191 185 198 210 193 188 207 220 226 220 201 207 220 206 207 224 233 243 239 225 224 241 257 276 282 291 288 277 263 251 248 254 260 268 274 275 279 284
159 157 148 145 154 152 144 147 150 149 148 144 149 156 148 145 145 141 137 136 141 150 148 143 147 145 133 130 150 165 157 150 157 170 177 186 153 144 161 172 177 183 172 169 191 198 194 198 194 201 216 208 192 203 220 227 222 204 203 215 219 213 223 236 246 238 236 253 257 259 267 273 284 287 283 278 265 257 260 263 268 274 277 282 288
154 152 152 150 149 147 145 150 153 148 143 144 150 151 148 148 148 151 151 149 154 152 142 142 145 137 142 155 168 178 168 165 170 173 184 198 180 167 176 167 162 186 193 177 190 211 202 198 204 204 215 223 206 201 218 225 222 220 210 208 213 221 228 238 247 248 253 264 265 261 261 263 274 282 284 281 272 267 265 263 270 280 284 291 297
155 152 155 151 145 145 148 152 152 144 143 150 152 149 153 156 156 159 155 152 157 147 139 157 153 134 140 161 166 178 175 175 181 183 192 201 192 185 192 190 170 173 197 192 193 209 203 200 213 210 213 228 223 209 214 219 220 224 222 214 214 220 228 237 246 250 256 263 266 262 255 258 269 275 276 277 275 274 269 265 274 290 296 301 304
155 151 158 151 143 146 153 152 151 151 159 165 160 158 162 161 157 158 152 150 157 149 144 162 154 137 143 160 167 188 189 191 200 202 210 211 204 200 202 205 203 194 197 202 205 216 218 210 215 218 217 226 232 225 218 220 225 228 228 224 222 225 230 236 243 250 257 264 266 256 250 256 268 267 265 271 278 275 267 264 275 296 305 306 306
153 152 161 153 143 149 156 154 158 169 174 174 172 171 168 162 157 156 152 151 158 155 149 150 145 144 166 182 190 200 205 209 214 218 226 223 213 215 214 215 220 218 212 213 215 225 236 233 227 231 228 226 233 237 230 227 232 234 232 228 224 226 231 236 242 249 258 266 268 259 256 263 274 273 269 278 289 284 276 280 289 300 306 308 308
153 154 161 158 149 152 160 162 171 184 187 179 182 185 175 170 169 160 155 164 174 169 160 159 166 180 200 211 217 220 222 224 223 226 234 235 233 232 228 223 224 225 224 224 222 227 237 242 240 241 240 237 238 243 245 244 241 239 238 235 230 229 229 232 236 240 249 259 263 266 272 277 280 283 283 287 296 295 288 292 296 298 304 309 309
153 151 156 162 157 154 164 171 178 190 196 187 186 192 185 181 184 175 163 167 177 174 177 188 201 219 231 236 240 245 249 246 239 236 237 242 247 249 247 242 237 233 234 234 232 231 233 236 240 241 241 242 242 243 247 249 244 240 242 241 236 233 232 233 235 238 246 253 253 256 265 268 265 272 281 286 292 292 290 291 292 296 304 310 310
154 152 153 162 161 158 173 188 194 201 206 200 196 200 198 189 191 187 173 168 172 186 210 223 233 248 262 271 274 279 287 273 254 251 255 257 256 257 260 260 253 247 246 247 248 247 244 242 242 242 242 242 242 240 240 241 240 238 240 242 238 236 237 237 237 239 244 244 243 248 255 256 256 261 268 273 277 282 284 285 287 294 301 303 304
157 157 157 161 163 164 171 184 197 206 209 208 204 207 210 206 206 208 201 193 193 207 234 251 266 280 288 291 288 288 292 285 275 271 269 264 259 257 264 273 272 266 260 257 256 255 254 253 250 249 249 249 248 246 243 243 245 242 242 245 241 236 238 241 241 240 238 237 240 245 247 247 248 253 261 268 274 278 279 280 283 288 291 293 297
163 165 168 168 168 172 172 171 180 190 191 195 198 203 214 218 220 228 233 230 232 247 265 272 281 293 300 301 295 291 291 286 282 280 276 268 260 259 269 281 285 281 276 271 269 265 261 259 258 256 254 253 254 254 250 249 251 251 250 250 246 240 240 244 243 238 234 234 238 238 238 236 235 247 263 267 265 266 268 272 278 281 285 290 295
173 173 179 178 175 181 184 178 178 181 175 178 195 205 220 232 238 245 251 253 256 266 279 286 292 296 299 300 294 288 286 282 281 284 283 275 264 260 267 275 276 275 276 277 278 277 275 272 268 265 262 259 258 259 258 256 257 260 256 251 248 246 243 243 244 241 235 233 235 234 229 226 222 232 253 255 248 249 254 258 267 276 283 288 293
173 174 181 187 188 191 195 192 188 190 191 201 226 246 253 256 258 258 259 261 265 272 279 286 291 289 285 286 286 284 284 284 286 288 282 271 261 256 260 266 268 269 270 271 272 273 275 277 275 272 268 265 262 262 263 262 260 262 261 255 250 247 244 243 244 242 238 237 241 239 229 228 230 226 229 238 240 241 247 255 265 274 280 285 291
166 172 180 190 196 197 201 203 202 203 209 216 232 257 269 269 266 266 268 268 269 273 276 280 283 280 279 282 285 286 288 290 290 287 277 264 258 258 260 263 267 268 268 271 273 273 274 275 275 273 270 267 265 263 264 264 263 263 263 259 251 244 243 242 238 235 237 244 250 246 237 241 247 230 215 221 233 241 255 268 273 276 281 287 293
170 176 182 188 194 197 202 211 219 226 233 236 240 251 262 265 263 264 266 267 269 272 275 279 282 285 290 294 291 289 291 293 292 285 277 270 269 271 271 270 272 274 273 274 276 278 279 277 275 273 270 269 268 266 266 267 268 267 265 261 256 248 244 240 233 231 235 238 239 239 239 245 247 230 222 228 237 246 264 277 279 280 284 291 297
Height
1541 1542 1543 1543 1544 1545 1545 1546 1546 1547 1547 1548 1549 1550 1550 1551 1552 1553 1555 1557 1559 1560 1561 1561 1562 1564 1562 1560 1562 1565 1566 1565 1565 1566 1567 1568 1567 1567 1567 1567 1567 1567 1567 1567 1567 1568 1567 1567 1567 1567 1567 1567 1567 1567 1567 1567 1567 1567 1567 1567 1567 1567 1567 1567 1567 1567 1567 1568 1568 1568 1568 1568 1568 1568 1568 1568 1568 1568 1568 1568 1568 1568 1568 1568 1568
1541 1542 1543 1544 1544 1545 1546 1547 1547 1547 1548 1548 1549 1549 1550 1550 1551 1553 1554 1557 1558 1560 1561 1562 1564 1563 1560 1561 1564 1565 1566 1565 1565 1565 1565 1566 1566 1567 1567 1568 1568 1568 1568 1568 1568 1568 1568 1568 1568 1567 1567 1567 1567 1567 1568 1568 1568 1568 1568 1568 1568 1568 1568 1568 1568 1568 1568 1568 1568 1568 1569 1569 1569 1569 1569 1569 1569 1569 1569 1569 1569 1569 1569 1569 1569
1541 1541 1542 1544 1545 1545 1546 1547 1547 1547 1547 1547 1548 1548 1549 1550 1551 1552 1554 1556 1557 1558 1560 1561 1564 1562 1560 1563 1564 1564 1566 1566 1565 1565 1564 1564 1565 1567 1567 1568 1568 1568 1568 1568 1568 1568 1569 1569 1568 1568 1568 1568 1568 1568 1568 1568 1568 1568 1568 1568 1568 1568 1568 1568 1568 1569 1569 1569 1569 1569 1569 1569 1570 1570 1570 1570 1570 1570 1570 1570 1570 1570 1570 1570 1569
1542 1542 1542 1544 1545 1546 1546 1546 1546 1546 1547 1546 1547 1548 1548 1550 1551 1552 1554 1555 1556 1558 1559 1562 1562 1560 1561 1563 1563 1564 1566 1565 1565 1564 1564 1564 1565 1567 1568 1568 1568 1568 1568 1569 1569 1569 1569 1570 1569 1569 1569 1568 1568 1568 1569 1569 1569 1569 1569 1569 1569 1569 1569 1569 1569 1569 1570 1570 1570 1570 1570 1570 1570 1571 1571 1571 1571 1571 1571 1571 1571 1571 1570 1570 1570
1542 1542 1543 1544 1545 1546 1546 1546 1546 1546 1546 1546 1547 1548 1549 1550 1551 1553 1554 1555 1557 1558 1560 1562 1561 1560 1562 1563 1563 1564 1564 1564 1564 1564 1565 1565 1566 1567 1568 1568 1568 1568 1569 1569 1569 1570 1570 1570 1570 1570 1570 1569 1569 1569 1569 1569 1569 1569 1569 1569 1569 1569 1570 1570 1570 1570 1570 1571 1571 1571 1571 1571 1571 1571 1571 1572 1572 1572 1572 1571 1571 1571 1571 1571 1571
1542 1541 1542 1544 1544 1545 1545 1546 1546 1546 1546 1547 1547 1548 1549 1550 1551 1553 1554 1556 1557 1558 1560 1561 1560 1561 1563 1562 1563 1563 1564 1564 1563 1564 1565 1565 1566 1567 1568 1568 1568 1568 1569 1569 1570 1571 1571 1571 1571 1571 1571 1570 1570 1570 1570 1570 1570 1570 1570 1570 1570 1570 1570 1570 1571 1571 1571 1571 1571 1571 1571 1572 1572 1572 1572 1572 1572 1572 1572 1572 1572 1572 1572 1572 1572
1541 1540 1541 1542 1542 1544 1545 1546 1546 1546 1547 1547 1548 1548 1549 1550 1552 1553 1554 1556 1557 1558 1560 1558 1558 1562 1563 1563 1563 1563 1563 1563 1562 1564 1565 1566 1567 1567 1568 1568 1568 1569 1569 1569 1570 1571 1572 1572 1573 1572 1572 1571 1571 1571 1571 1571 1571 1571 1571 1571 1571 1571 1571 1571 1571 1571 1572 1572 1572 1572 1572 1572 1572 1572 1572 1573 1573 1573 1573 1573 1573 1573 1573 1573 1573
1539 1539 1540 1541 1542 1543 1544 1545 1546 1546 1546 1547 1548 1548 1549 1550 1552 1553 1554 1556 1557 1558 1559 1557 1558 1564 1565 1564 1564 1564 1564 1563 1562 1564 1565 1566 1567 1567 1568 1568 1569 1569 1569 1570 1570 1572 1572 1573 1573 1573 1573 1573 1573 1573 1573 1573 1573 1572 1572 1572 1572 1572 1572 1572 1572 1572 1572 1573 1573 1573 1573 1573 1573 1573 1573 1573 1573 1573 1573 1574 1574 1574 1574 1574 1574
1537 1538 1539 1540 1542 1543 1544 1545 1545 1545 1546 1546 1547 1548 1549 1550 1551 1552 1554 1555 1557 1557 1559 1558 1559 1563 1565 1565 1564 1564 1564 1563 1563 1564 1565 1565 1567 1568 1568 1568 1569 1570 1570 1570 1571 1572 1573 1573 1574 1574 1574 1574 1574 1574 1574 1574 1574 1574 1574 1574 1573 1573 1573 1573 1573 1573 1574 1574 1574 1574 1574 1574 1574 1574 1574 1574 1574 1574 1575 1575 1575 1575 1575 1575 1575
1536 1536 1538 1540 1542 1543 1544 1545 1545 1545 1546 1546 1547 1547 1548 1549 1550 1552 1553 1555 1556 1557 1559 1558 1559 1562 1563 1564 1564 1563 1563 1564 1564 1564 1565 1566 1567 1568 1568 1569 1570 1570 1570 1571 1571 1572 1573 1573 1574 1574 1575 1575 1575 1575 1575 1575 1575 1575 1575 1574 1575 1575 1575 1575 1574 1574 1575 1575 1575 1575 1575 1575 1575 1575 1575 1575 1576 1576 1576 1576 1576 1576 1576 1576 1576
1535 1536 1538 1540 1541 1543 1544 1544 1544 1545 1546 1546 1547 1547 1548 1549 1550 1551 1553 1554 1556 1557 1558 1558 1559 1560 1561 1562 1563 1562 1562 1564 1564 1564 1564 1566 1567 1568 1568 1569 1569 1570 1571 1571 1571 1572 1572 1573 1574 1575 1575 1576 1576 1576 1576 1576 1575 1575 1575 1575 1576 1576 1576 1576 1576 1576 1576 1576 1576 1576 1576 1576 1576 1576 1576 1576 1577 1577 1577 1577 1578 1578 1578 1578 1578
1536 1537 1538 1540 1541 1543 1543 1544 1544 1545 1546 1546 1547 1548 1548 1549 1549 1551 1552 1553 1555 1556 1557 1557 1558 1559 1560 1562 1563 1562 1562 1564 1565 1565 1564 1565 1567 1567 1568 1569 1569 1570 1571 1571 1572 1572 1573 1573 1574 1575 1575 1576 1576 1576 1576 1576 1576 1576 1575 1576 1576 1577 1577 1577 1577 1577 1577 1577 1577 1577 1577 1577 1578 1577 1578 1578 1578 1578 1579 1579 1579 1579 1579 1579 1579
1537 1537 1538 1540 1541 1542 1543 1543 1543 1544 1545 1546 1547 1548 1548 1549 1549 1550 1552 1553 1554 1555 1556 1556 1557 1558 1560 1561 1562 1562 1563 1563 1564 1564 1564 1565 1566 1566 1568 1569 1569 1570 1571 1572 1572 1573 1574 1574 1574 1575 1575 1576 1576 1576 1576 1576 1576 1576 1576 1576 1576 1577 1577 1577 1578 1578 1578 1578 1578 1579 1579 1579 1579 1579 1579 1579 1579 1580 1580 1580 1580 1580 1580 1580 1580
1537 1537 1538 1539 1540 1541 1542 1542 1542 1543 1544 1546 1546 1547 1548 1549 1549 1550 1551 1553 1554 1554 1555 1556 1557 1558 1560 1560 1561 1562 1563 1563 1563 1563 1564 1565 1566 1567 1568 1569 1569 1570 1571 1572 1572 1573 1574 1574 1574 1575 1576 1576 1576 1576 1576 1576 1576 1576 1576 1576 1577 1577 1577 1578 1578 1579 1579 1579 1579 1580 1580 1580 1580 1580 1580 1580 1580 1580 1581 1581 1581 1581 1581 1581 1581
1536 1537 1538 1539 1539 1540 1540 1541 1541 1542 1544 1546 1546 1547 1548 1549 1550 1550 1551 1552 1553 1554 1555 1556 1556 1558 1559 1559 1560 1561 1562 1563 1563 1564 1565 1565 1566 1567 1567 1568 1569 1570 1571 1572 1573 1574 1574 1575 1575 1575 1576 1576 1576 1576 1576 1575 1575 1576 1576 1576 1576 1577 1577 1578 1579 1579 1579 1579 1580 1580 1580 1580 1580 1581 1581 1581 1581 1581 1581 1582 1582 1582 1582 1582 1582
1536 1537 1538 1538 1539 1539 1540 1540 1541 1542 1544 1546 1546 1547 1548 1550 1550 1550 1551 1552 1553 1553 1554 1555 1556 1556 1557 1558 1559 1561 1562 1562 1563 1564 1565 1565 1566 1567 1567 1568 1569 1570 1571 1572 1572 1573 1574 1575 1575 1576 1576 1576 1576 1576 1575 1575 1576 1576 1576 1576 1576 1577 1577 1578 1579 1579 1579 1580 1580 1580 1580 1581 1581 1581 1581 1582 1582 1582 1582 1582 1582 1582 1582 1582 1583
1536 1537 1537 1538 1538 1539 1539 1539 1540 1542 1543 1546 1547 1547 1548 1550 1550 1550 1552 1552 1552 1553 1553 1555 1555 1556 1557 1557 1558 1560 1560 1561 1563 1564 1565 1566 1566 1567 1567 1568 1569 1569 1571 1572 1573 1573 1574 1575 1575 1575 1575 1575 1575 1575 1575 1575 1575 1575 1576 1576 1576 1577 1577 1578 1578 1579 1579 1580 1580 1580 1581 1581 1581 1581 1581 1582 1582 1582 1582 1582 1582 1583 1583 1583 1583
1536 1536 1537 1537 1538 1538 1539 1539 1540 1542 1544 1546 1547 1547 1548 1549 1550 1551 1551 1552 1552 1552 1553 1554 1555 1556 1556 1557 1557 1558 1559 1560 1561 1563 1565 1566 1567 1567 1568 1568 1568 1570 1571 1572 1573 1573 1574 1575 1575 1575 1575 1576 1575 1575 1575 1575 1575 1576 1576 1576 1576 1576 1577 1577 1578 1579 1580 1580 1580 1581 1581 1581 1581 1581 1581 1582 1582 1582 1583 1583 1583 1583 1583 1583 1583
1535 1536 1536 1537 1537 1538 1538 1540 1541 1542 1544 1545 1546 1547 1548 1549 1550 1550 1551 1551 1552 1552 1553 1554 1554 1555 1556 1556 1556 1557 1558 1559 1560 1561 1563 1566 1567 1568 1568 1568 1569 1570 1571 1572 1573 1573 1574 1574 1575 1575 1575 1576 1576 1575 1575 1575 1576 1576 1576 1576 1577 1577 1577 1578 1578 1579 1580 1580 1581 1581 1581 1581 1581 1581 1581 1582 1582 1583 1583 1583 1583 1584 1584 1584 1583
1534 1535 1535 1536 1536 1537 1539 1540 1541 1542 1543 1544 1545 1546 1547 1548 1549 1550 1550 1551 1551 1552 1552 1553 1554 1554 1555 1556 1557 1557 1558 1559 1560 1561 1562 1564 1567 1568 1569 1569 1570 1571 1572 1572 1573 1574 1574 1575 1575 1576 1576 1576 1576 1576 1576 1576 1576 1576 1577 1577 1577 1578 1578 1578 1579 1580 1580 1581 1581 1581 1581 1581 1581 1581 1582 1582 1583 1583 1583 1583 1584 1584 1584 1584 1584
1533 1534 1534 1535 1536 1537 1538 1539 1540 1541 1542 1543 1544 1545 1546 1547 1548 1549 1550 1550 1551 1551 1552 1553 1554 1554 1555 1556 1556 1557 1558 1559 1560 1561 1562 1563 1566 1568 1569 1570 1571 1572 1573 1573 1574 1575 1575 1575 1575 1576 1576 1576 1577 1577 1576 1576 1577 1577 1578 1578 1579 1579 1579 1580 1580 1580 1581 1581 1581 1581 1581 1582 1582 1582 1582 1583 1583 1583 1584 1584 1584 1584 1584 1584 1584
1533 1534 1534 1534 1535 1536 1537 1539 1540 1541 1542 1543 1543 1544 1546 1547 1548 1548 1549 1550 1550 1551 1552 1552 1553 1553 1554 1555 1555 1556 1557 1558 1559 1561 1562 1563 1564 1567 1568 1569 1571 1572 1574 1574 1575 1576 1577 1577 1577 1577 1577 1577 1578 1578 1577 1577 1578 1578 1579 1579 1580 1580 1580 1581 1581 1581 1582 1582 1582 1582 1582 1582 1582 1582 1583 1583 1583 1584 1584 1584 1584 1584 1584 1584 1584
1533 1534 1534 1534 1535 1536 1537 1538 1540 1540 1541 1542 1543 1544 1545 1546 1547 1547 1548 1549 1550 1550 1551 1552 1552 1553 1553 1554 1554 1555 1556 1557 1558 1560 1561 1562 1564 1566 1568 1569 1570 1572 1573 1575 1575 1576 1578 1578 1578 1577 1577 1578 1578 1578 1578 1578 1579 1579 1580 1580 1581 1581 1581 1582 1582 1582 1582 1582 1582 1582 1582 1582 1583 1583 1583 1583 1583 1584 1584 1584 1584 1584 1584 1584 1584
1532 1533 1533 1534 1535 1536 1537 1538 1540 1541 1541 1542 1543 1544 1545 1546 1546 1547 1547 1548 1549 1550 1550 1551 1552 1552 1553 1553 1554 1555 1556 1557 1558 1559 1561 1562 1563 1565 1567 1568 1570 1572 1573 1574 1576 1577 1579 1579 1579 1578 1578 1578 1579 1579 1579 1579 1580 1580 1580 1581 1581 1582 1582 1582 1582 1582 1583 1583 1582 1582 1582 1582 1583 1583 1583 1583 1583 1584 1584 1584 1584 1584 1584 1584 1584
1531 1532 1533 1534 1535 1536 1537 1539 1539 1541 1542 1542 1543 1544 1544 1545 1546 1546 1547 1548 1548 1549 1550 1550 1551 1551 1552 1553 1554 1555 1556 1557 1557 1559 1560 1561 1562 1564 1566 1568 1569 1571 1573 1574 1576 1578 1579 1579 1578 1579 1579 1579 1579 1580 1580 1580 1580 1581 1581 1582 1582 1582 1583 1583 1583 1583 1583 1583 1583 1583 1583 1583 1583 1583 1583 1583 1584 1584 1584 1584 1584 1584 1584 1584 1584
1530 1532 1533 1534 1535 1536 1538 1539 1539 1540 1541 1541 1542 1543 1544 1545 1545 1546 1546 1547 1548 1548 1549 1550 1550 1551 1552 1553 1553 1554 1556 1557 1558 1559 1560 1561 1562 1563 1565 1568 1570 1572 1573 1574 1576 1578 1579 1579 1578 1578 1579 1580 1580 1580 1581 1581 1581 1581 1582 1582 1582 1583 1583 1583 1583 1583 1583 1584 1583 1583 1583 1583 1583 1583 1583 1584 1584 1584 1584 1584 1585 1585 1585 1585 1585
1530 1532 1533 1534 1535 1537 1538 1539 1539 1540 1541 1541 1542 1543 1544 1545 1545 1546 1546 1547 1548 1548 1548 1549 1549 1551 1552 1552 1553 1554 1555 1557 1557 1559 1560 1561 1562 1563 1564 1566 1569 1572 1573 1575 1576 1578 1579 1579 1578 1579 1579 1580 1580 1581 1581 1581 1581 1582 1583 1583 1583 1583 1583 1584 1583 1584 1584 1584 1584 1584 1583 1583 1583 1583 1584 1584 1584 1584 1584 1584 1584 1585 1585 1585 1585
1530 1532 1534 1534 1535 1536 1537 1539 1539 1540 1541 1541 1542 1543 1544 1545 1545 1546 1546 1547 1547 1548 1548 1548 1549 1550 1551 1552 1553 1554 1555 1556 1557 1558 1560 1561 1562 1563 1564 1565 1567 1570 1572 1574 1576 1577 1578 1578 1578 1579 1580 1580 1580 1581 1581 1581 1582 1582 1583 1584 1584 1584 1584 1584 1584 1584 1584 1585 1584 1584 1584 1584 1584 1584 1584 1584 1584 1584 1584 1584 1584 1585 1585 1585 1585
1530 1532 1534 1534 1536 1537 1537 1538 1539 1540 1541 1542 1543 1544 1545 1545 1545 1546 1546 1547 1547 1547 1548 1548 1549 1550 1551 1552 1553 1554 1555 1556 1557 1558 1559 1561 1562 1563 1565 1566 1567 1568 1570 1573 1575 1576 1577 1577 1577 1578 1580 1580 1580 1581 1581 1582 1582 1583 1584 1584 1584 1584 1584 1584 1584 1585 1585 1585 1585 1584 1584 1584 1584 1584 1584 1584 1584 1584 1584 1584 1584 1585 1585 1585 1585
1530 1532 1534 1535 1535 1536 1537 1538 1539 1540 1541 1542 1543 1544 1545 1545 1546 1546 1546 1547 1547 1547 1548 1548 1549 1550 1551 1553 1554 1555 1556 1557 1558 1559 1560 1561 1562 1564 1565 1566 1567 1568 1569 1571 1573 1575 1576 1577 1577 1577 1579 1580 1580 1581 1581 1582 1582 1583 1583 1584 1584 1585 1585 1585 1585 1585 1585 1585 1585 1585 1584 1584 1584 1584 1584 1584 1584 1584 1584 1584 1584 1585 1585 1585 1585
1531 1532 1534 1534 1535 1536 1537 1538 1538 1539 1541 1542 1543 1544 1545 1545 1546 1546 1546 1547 1547 1548 1548 1549 1550 1551 1552 1553 1554 1555 1556 1557 1558 1559 1560 1561 1562 1564 1565 1566 1567 1568 1570 1570 1572 1574 1576 1576 1576 1576 1578 1579 1579 1580 1581 1582 1582 1583 1583 1584 1584 1585 1585 1585 1585 1585 1585 1585 1585 1585 1585 1584 1584 1584 1584 1584 1584 1584 1584 1584 1584 1584 1585 1585 1584
1531 1532 1534 1534 1535 1535 1536 1537 1538 1539 1540 1541 1543 1544 1544 1545 1545 1546 1546 1547 1548 1548 1548 1549 1550 1551 1552 1553 1554 1555 1556 1557 1558 1559 1561 1562 1563 1564 1565 1566 1567 1568 1569 1570 1571 1573 1576 1576 1575 1576 1578 1579 1579 1580 1580 1581 1582 1582 1583 1584 1584 1584 1585 1585 1585 1585 1585 1585 1585 1585 1585 1585 1584 1584 1584 1584 1584 1584 1584 1584 1584 1584 1584 1584 1584
1531 1533 1534 1534 1535 1535 1536 1537 1538 1539 1540 1541 1542 1543 1544 1545 1545 1546 1546 1547 1548 1548 1549 1549 1550 1551 1552 1553 1554 1555 1556 1557 1559 1560 1561 1562 1563 1564 1565 1566 1567 1568 1569 1570 1571 1573 1575 1575 1575 1576 1577 1578 1579 1580 1580 1581 1581 1582 1582 1583 1584 1584 1584 1585 1585 1585 1585 1585 1585 1585 1585 1585 1584 1584 1584 1583 1583 1583 1583 1583 1583 1583 1583 1583 1583
1531 1533 1534 1534 1535 1536 1537 1538 1538 1539 1540 1540 1542 1543 1543 1544 1545 1545 1546 1547 1548 1548 1549 1550 1550 1551 1552 1554 1554 1555 1557 1558 1559 1561 1562 1563 1564 1565 1565 1566 1567 1568 1568 1569 1571 1572 1573 1574 1575 1576 1577 1578 1579 1579 1579 1580 1581 1581 1581 1582 1583 1583 1584 1584 1584 1585 1585 1585 1585 1585 1585 1584 1584 1584 1583 1583 1583 1582 1582 1582 1582 1582 1582 1582 1582
1531 1533 1533 1534 1535 1536 1537 1538 1538 1539 1540 1540 1542 1543 1543 1544 1545 1546 1546 1547 1548 1549 1550 1551 1551 1552 1553 1554 1555 1556 1557 1559 1560 1562 1562 1563 1565 1566 1566 1566 1567 1567 1568 1569 1570 1571 1572 1574 1575 1575 1576 1578 1579 1578 1579 1580 1580 1580 1580 1581 1582 1582 1583 1583 1584 1584 1584 1584 1584 1584 1584 1584 1583 1583 1583 1582 1582 1582 1582 1582 1582 1582 1582 1581 1581
1530 1532 1533 1534 1535 1537 1537 1538 1538 1539 1540 1541 1542 1543 1543 1544 1545 1545 1546 1547 1548 1550 1551 1552 1552 1553 1554 1554 1556 1557 1558 1559 1561 1562 1563 1564 1566 1567 1567 1567 1568 1568 1569 1570 1570 1571 1572 1573 1575 1575 1576 1578 1579 1578 1578 1579 1580 1580 1580 1581 1581 1581 1581 1582 1583 1583 1583 1583 1583 1583 1583 1583 1583 1582 1582 1581 1581 1581 1581 1580 1580 1580 1580 1580 1580
1530 1531 1532 1534 1535 1536 1537 1538 1539 1539 1540 1541 1542 1543 1543 1544 1545 1546 1547 1548 1549 1551 1552 1553 1553 1554 1555 1556 1556 1558 1559 1560 1562 1563 1563 1564 1566 1567 1567 1568 1569 1569 1570 1570 1570 1571 1572 1573 1575 1576 1576 1577 1578 1578 1577 1578 1579 1580 1580 1580 1581 1580 1578 1579 1581 1582 1582 1582 1582 1582 1582 1582 1581 1581 1581 1580 1580 1579 1579 1579 1579 1579 1579 1579 1578
1530 1531 1532 1534 1535 1536 1537 1539 1539 1540 1541 1542 1543 1543 1544 1545 1546 1547 1548 1549 1550 1551 1552 1553 1554 1555 1556 1557 1558 1559 1560 1561 1562 1563 1564 1565 1566 1567 1567 1568 1569 1569 1570 1571 1571 1571 1572 1573 1575 1575 1575 1576 1578 1578 1577 1577 1578 1579 1579 1580 1580 1579 1577 1577 1580 1581 1580 1580 1580 1580 1580 1580 1580 1580 1579 1578 1578 1578 1578 1578 1578 1578 1577 1577 1577
1530 1531 1532 1534 1535 1536 1538 1539 1540 1541 1542 1543 1543 1544 1545 1545 1546 1547 1548 1550 1551 1552 1553 1554 1555 1556 1558 1558 1559 1560 1560 1561 1562 1563 1564 1564 1565 1566 1566 1567 1568 1569 1570 1571 1571 1571 1571 1572 1574 1575 1575 1575 1577 1578 1577 1577 1577 1578 1578 1579 1579 1578 1576 1576 1578 1578 1578 1579 1579 1579 1579 1578 1578 1578 1577 1577 1577 1576 1576 1576 1576 1576 1576 1575 1575
1530 1531 1532 1534 1535 1537 1538 1540 1541 1542 1543 1544 1544 1545 1545 1546 1547 1548 1549 1550 1551 1552 1554 1555 1556 1558 1559 1560 1560 1561 1561 1561 1562 1563 1563 1564 1564 1565 1566 1567 1568 1568 1569 1570 1571 1571 1571 1572 1572 1574 1575 1575 1575 1577 1578 1577 1576 1576 1576 1577 1577 1576 1575 1575 1576 1576 1576 1577 1577 1577 1577 1577 1576 1576 1576 1576 1575 1575 1575 1575 1575 1575 1574 1574 1573
1530 1532 1533 1534 1535 1538 1539 1540 1542 1543 1543 1544 1544 1545 1546 1547 1548 1549 1550 1551 1552 1553 1555 1556 1557 1559 1560 1561 1562 1562 1562 1563 1563 1563 1564 1564 1565 1565 1566 1566 1567 1568 1569 1569 1570 1570 1571 1572 1572 1572 1573 1574 1574 1575 1576 1576 1575 1575 1575 1576 1576 1575 1574 1574 1574 1574 1574 1575 1575 1575 1574 1575 1575 1574 1574 1574 1574 1573 1573 1574 1574 1574 1573 1573 1572
1530 1532 1534 1535 1536 1538 1539 1541 1542 1542 1543 1544 1545 1546 1547 1547 1548 1550 1551 1552 1553 1554 1555 1556 1558 1559 1560 1560 1561 1562 1562 1563 1563 1564 1564 1565 1565 1566 1566 1566 1567 1567 1568 1568 1569 1569 1570 1571 1571 1572 1572 1572 1572 1572 1573 1574 1574 1574 1574 1574 1574 1573 1572 1572 1571 1571 1571 1571 1572 1572 1572 1572 1572 1572 1572 1572 1572 1572 1571 1571 1572 1572 1572 1571 1570
1530 1532 1534 1535 1536 1538 1540 1541 1541 1541 1543 1544 1545 1546 1547 1548 1549 1550 1551 1552 1553 1554 1556 1557 1558 1559 1559 1559 1561 1562 1562 1562 1563 1563 1564 1565 1565 1566 1566 1566 1567 1567 1567 1567 1568 1568 1568 1569 1570 1570 1570 1571 1571 1571 1571 1572 1573 1573 1573 1572 1572 1571 1570 1569 1568 1568 1568 1568 1569 1569 1569 1569 1569 1569 1569 1569 1569 1569 1569 1569 1570 1570 1570 1570 1569
1530 1532 1534 1535 1536 1538 1540 1540 1540 1541 1543 1544 1545 1547 1547 1548 1549 1550 1551 1552 1553 1555 1556 1556 1557 1557 1558 1559 1561 1562 1562 1563 1563 1563 1563 1564 1564 1565 1566 1566 1566 1566 1566 1566 1566 1567 1567 1567 1567 1568 1568 1569 1569 1570 1570 1570 1570 1570 1570 1570 1570 1568 1567 1566 1566 1566 1566 1567 1568 1568 1567 1567 1567 1567 1567 1566 1566 1566 1567 1567 1568 1568 1568 1568 1567
1529 1531 1533 1535 1537 1538 1539 1539 1539 1541 1543 1544 1545 1547 1548 1548 1549 1550 1551 1552 1553 1555 1555 1556 1556 1557 1559 1560 1561 1561 1562 1562 1563 1563 1563 1563 1563 1564 1564 1565 1565 1566 1566 1565 1565 1565 1565 1565 1565 1565 1565 1566 1566 1567 1567 1567 1567 1567 1567 1567 1567 1566 1565 1564 1564 1564 1565 1565 1565 1566 1566 1566 1566 1566 1565 1565 1565 1565 1565 1565 1565 1566 1566 1566 1566
1529 1531 1533 1534 1536 1537 1537 1538 1540 1541 1543 1544 1545 1547 1548 1549 1550 1551 1552 1553 1554 1555 1555 1556 1557 1558 1560 1561 1561 1561 1561 1561 1562 1562 1562 1562 1562 1562 1562 1563 1564 1564 1564 1564 1563 1563 1563 1563 1563 1563 1563 1563 1562 1563 1564 1564 1563 1563 1564 1564 1563 1564 1564 1563 1563 1563 1563 1563 1563 1563 1564 1564 1564 1564 1565 1564 1563 1563 1563 1564 1564 1564 1565 1565 1565
1529 1531 1533 1534 1535 1536 1537 1538 1540 1541 1543 1544 1545 1546 1548 1549 1550 1551 1552 1553 1554 1555 1556 1556 1557 1558 1559 1559 1560 1560 1560 1561 1561 1561 1561 1560 1560 1560 1560 1561 1561 1561 1561 1561 1561 1561 1561 1561 1561 1560 1560 1560 1559 1559 1560 1560 1559 1559 1560 1560 1561 1562 1562 1561 1560 1560 1560 1560 1560 1559 1560 1561 1562 1562 1563 1563 1562 1561 1562 1563 1563 1563 1563 1563 1563
1529 1531 1533 1535 1536 1536 1537 1539 1540 1541 1543 1544 1545 1546 1548 1549 1550 1551 1552 1553 1554 1555 1556 1556 1557 1557 1558 1558 1558 1558 1559 1559 1559 1559 1559 1559 1559 1559 1560 1560 1560 1560 1559 1559 1558 1558 1558 1558 1558 1558 1558 1557 1557 1557 1557 1557 1557 1557 1557 1556 1557 1558 1558 1557 1557 1557 1557 1557 1557 1556 1558 1559 1560 1561 1561 1561 1561 1561 1561 1561 1562 1561 1561 1561 1561
1530 1531 1533 1535 1536 1537 1538 1540 1541 1541 1542 1543 1544 1546 1547 1549 1550 1551 1551 1552 1553 1554 1555 1556 1556 1556 1556 1556 1556 1556 1557 1557 1557 1557 1556 1556 1557 1557 1557 1558 1558 1558 1557 1557 1557 1556 1556 1556 1555 1555 1555 1555 1555 1555 1555 1555 1555 1555 1555 1553 1553 1553 1553 1553 1554 1555 1555 1555 1555 1555 1556 1557 1559 1559 1559 1559 1559 1559 1559 1560 1561 1561 1560 1560 1559
1530 1532 1533 1534 1536 1537 1538 1539 1540 1541 1542 1543 1544 1545 1547 1548 1549 1550 1550 1551 1552 1553 1554 1555 1555 1555 1555 1556 1555 1555 1555 1555 1555 1555 1554 1554 1554 1555 1555 1556 1556 1555 1555 1555 1554 1553 1553 1553 1552 1552 1552 1551 1551 1551 1551 1551 1551 1552 1551 1550 1549 1549 1550 1550 1551 1552 1553 1553 1554 1554 1554 1555 1557 1557 1557 1557 1557 1558 1558 1558 1559 1559 1559 1558 1557
1531 1531 1533 1534 1535 1536 1537 1538 1539 1540 1541 1543 1544 1545 1547 1548 1548 1549 1549 1550 1550 1551 1552 1553 1553 1553 1553 1554 1553 1553 1553 1553 1553 1553 1552 1552 1552 1553 1553 1554 1554 1553 1552 1552 1552 1551 1550 1550 1549 1549 1548 1548 1548 1548 1547 1547 1546 1547 1547 1546 1546 1546 1547 1548 1548 1550 1551 1550 1551 1551 1552 1553 1554 1554 1555 1555 1555 1556 1557 1557 1558 1558 1557 1556 1555